Home > Weather > Caen > Past weeks

Flag for France Past Weather in Caen, Lower Normandy, France — Yesterday and Last 2 Weeks

Now
79 °F

Sunny.


Feels Like: 80 °F
Forecast: 63 / 74 °F
Wind: 3 mph from North

Location: Caen Airport

Current Time: Aug 25, 2016 at 12:10:04 PM

Latest Report: Aug 25, 2016 at 11:30 AM


Visibility: 10 mi

Pressure: 29.98 "Hg

Humidity: 58%

Dew Point: 63 °F

Location of CaenLocation

Past Weather in Caen — Graph

°F

Caen Temperature Yesterday

Maximum temperature yesterday: 88 °F (at 1:00 PM)
Minimum temperature yesterday: 63 °F (at 6:30 AM)
Average temperature yesterday: 73 °F

High & Low Weather Summary for the Past Weeks

 TemperatureHumidityPressure
High93 °F (Aug 23, 4:30 PM)100% (Aug 12, 5:30 AM)30.33 "Hg (Aug 12, 5:30 AM)
Low50 °F (Aug 11, 1:30 AM)28% (Aug 23, 5:00 PM)29.74 "Hg (Aug 19, 10:00 AM)
Average65 °F75%30.10 "Hg
* Reported Aug 10 11:00 AM — Aug 25 11:00 AM, Caen, Weather by CustomWeather, © 2016

Note: Actual official high and low records may vary slightly from our data, if they occured in-between our weather recording intervals... More about our weather records

Advertising

Caen Weather History for the Previous 24 Hours

Scroll right to see more
 ConditionsComfort  
Time TempWeatherWind HumidityBarometerVisibility
11:00 AM
Thu, Aug 25
77 °FSunny.2 mph61%29.98 "Hg10 mi
10:30 AM75 °FPassing clouds.3 mph69%29.98 "HgN/A
10:00 AM73 °FPassing clouds.5 mph74%29.98 "HgN/A
9:30 AM70 °FSunny.2 mph78%29.98 "Hg10 mi
9:00 AM68 °FPassing clouds.3 mph83%29.98 "HgN/A
8:30 AM64 °FPassing clouds.3 mph88%29.98 "HgN/A
8:00 AM61 °FClear.2 mph100%29.98 "Hg10 mi
7:30 AM61 °FClear.5 mph94%29.98 "Hg10 mi
7:00 AM61 °FClear.6 mph94%29.98 "Hg6 mi
6:30 AM61 °FClear.6 mph94%29.98 "Hg5 mi
6:00 AM61 °FPassing clouds.5 mph88%29.98 "HgN/A
5:30 AM61 °FClear.No wind88%30.01 "Hg10 mi
5:00 AM63 °FClear.3 mph88%30.01 "Hg10 mi
4:30 AM61 °FClear.6 mph94%30.01 "Hg10 mi
4:00 AM63 °FClear.8 mph88%30.04 "Hg10 mi
3:30 AM63 °FClear.7 mph88%30.01 "Hg10 mi
3:00 AM63 °FClear.6 mph88%30.04 "Hg10 mi
2:30 AM63 °FClear.8 mph88%30.04 "Hg10 mi
2:00 AM63 °FPassing clouds.8 mph88%30.04 "HgN/A
1:30 AM63 °FClear.6 mph88%30.01 "Hg10 mi
1:00 AM63 °FClear.7 mph88%30.01 "Hg10 mi
12:30 AM63 °FClear.7 mph88%30.04 "Hg10 mi
12:00 AM64 °FClear.No wind88%30.04 "Hg10 mi
11:30 PM
Wed, Aug 24
64 °FClear.No wind83%30.07 "Hg10 mi
11:00 PM64 °FClear.3 mph83%30.04 "Hg10 mi
10:30 PM66 °FClear.2 mph78%30.04 "Hg10 mi
10:00 PM68 °FClear.2 mph78%30.07 "Hg10 mi
9:30 PM68 °FSunny.5 mph73%30.07 "Hg10 mi
9:00 PM70 °FSunny.10 mph73%30.07 "Hg10 mi
8:30 PM72 °FSunny.9 mph65%30.07 "Hg10 mi
8:00 PM73 °FPassing clouds.7 mph65%30.07 "HgN/A
7:30 PM75 °FSunny.10 mph61%30.07 "Hg10 mi
7:00 PM75 °FPassing clouds.12 mph61%30.07 "HgN/A
6:30 PM77 °FPassing clouds.14 mph57%30.07 "HgN/A
6:00 PM75 °FSunny.16 mph61%30.07 "Hg10 mi
5:30 PM79 °FSunny.17 mph58%30.07 "Hg10 mi
5:00 PM79 °FPassing clouds.14 mph58%30.07 "HgN/A
4:30 PM81 °FSunny.12 mph54%30.04 "Hg10 mi
4:00 PM82 °FPassing clouds.10 mph51%30.04 "HgN/A
3:30 PM82 °FPassing clouds.10 mph55%30.04 "HgN/A
3:00 PM82 °FSunny.10 mph55%30.04 "Hg10 mi
2:30 PM82 °FPassing clouds.9 mph55%30.04 "HgN/A
2:00 PM84 °FPassing clouds.9 mph55%30.04 "HgN/A
1:30 PM86 °FPassing clouds.8 mph49%30.04 "HgN/A
1:00 PM88 °FSunny.5 mph46%30.04 "Hg10 mi
12:30 PM86 °FSunny.3 mph46%30.07 "Hg10 mi
12:00 PM84 °FPassing clouds.3 mph48%30.07 "HgN/A
Weather by CustomWeather, © 2016

See weather overviewHow to use our weather pages